MDL1735 VOMM-OEJN

Flight info

Callsign MDL1735
Flight time 5h 49m
Altitude 36000
Route XIVIL W117 BIA DCT GUNIM N563 LEGEN P751 ANGAL M551 KIVEL B549 THAMD P323 WDR Z331 VEMEM
Aircraft A20N/M-SDE2E3FGHIRWXY/LB1

Departure

Time 2026-04-24 02:56
Airport Chennai International Airport (VOMM)

Arrival

Time 2026-04-24 08:45
Airport King Abdulaziz International Airport (OEJN)
Time Latitude Longitude Altitude Speed Heading
2026-04-24 02:41 12.98291 80.16021 45 ft 0 kts 158°
2026-04-24 02:44 12.98303 80.16017 46 ft 2 kts 158°
2026-04-24 02:44 12.98318 80.16010 46 ft 3 kts 157°
2026-04-24 02:45 12.98334 80.15990 46 ft 3 kts 104°
2026-04-24 02:45 12.98335 80.15976 46 ft 3 kts 77°
2026-04-24 02:45 12.98332 80.15969 46 ft 0 kts 69°
2026-04-24 02:46 12.98332 80.15970 46 ft 0 kts 69°
2026-04-24 02:46 12.98337 80.15982 46 ft 4 kts 69°
2026-04-24 02:46 12.98355 80.16030 46 ft 10 kts 69°
2026-04-24 02:47 12.98385 80.16111 46 ft 13 kts 70°
2026-04-24 02:47 12.98414 80.16194 46 ft 11 kts 70°
2026-04-24 02:47 12.98444 80.16270 46 ft 14 kts 68°
2026-04-24 02:47 12.98492 80.16391 46 ft 19 kts 68°
2026-04-24 02:48 12.98537 80.16509 46 ft 17 kts 68°
2026-04-24 02:48 12.98576 80.16611 46 ft 14 kts 69°
2026-04-24 02:48 12.98608 80.16695 46 ft 11 kts 69°
2026-04-24 02:48 12.98637 80.16761 46 ft 9 kts 46°
2026-04-24 02:49 12.98692 80.16769 46 ft 9 kts 343°
2026-04-24 02:49 12.98751 80.16745 46 ft 9 kts 336°
2026-04-24 02:49 12.98804 80.16752 46 ft 8 kts 49°
2026-04-24 02:49 12.98834 80.16808 46 ft 10 kts 70°
2026-04-24 02:50 12.98861 80.16884 46 ft 13 kts 70°
2026-04-24 02:50 12.98896 80.16980 46 ft 14 kts 69°
2026-04-24 02:50 12.98924 80.17053 46 ft 12 kts 69°
2026-04-24 02:50 12.98948 80.17118 46 ft 10 kts 69°
2026-04-24 02:51 12.98980 80.17189 46 ft 13 kts 60°
2026-04-24 02:51 12.99025 80.17277 46 ft 14 kts 68°
2026-04-24 02:51 12.99058 80.17365 46 ft 12 kts 69°
2026-04-24 02:51 12.99089 80.17444 46 ft 12 kts 69°
2026-04-24 02:52 12.99119 80.17524 46 ft 13 kts 69°
2026-04-24 02:52 12.99153 80.17616 46 ft 15 kts 71°
2026-04-24 02:52 12.99187 80.17720 46 ft 16 kts 71°
2026-04-24 02:52 12.99222 80.17822 46 ft 15 kts 70°
2026-04-24 02:53 12.99255 80.17915 46 ft 13 kts 70°
2026-04-24 02:53 12.99286 80.18008 46 ft 14 kts 69°
2026-04-24 02:53 12.99325 80.18110 46 ft 16 kts 69°
2026-04-24 02:53 12.99369 80.18215 46 ft 16 kts 56°
2026-04-24 02:54 12.99443 80.18299 46 ft 16 kts 44°
2026-04-24 02:54 12.99517 80.18372 46 ft 14 kts 44°
2026-04-24 02:54 12.99585 80.18421 46 ft 11 kts 347°
2026-04-24 02:54 12.99597 80.18363 46 ft 10 kts 250°
2026-04-24 02:55 12.99511 80.18128 46 ft 63 kts 249°
2026-04-24 02:55 12.99293 80.17530 46 ft 115 kts 250°
2026-04-24 02:55 12.98960 80.16610 46 ft 159 kts 248°
2026-04-24 02:55 12.98541 80.15477 318 ft 169 kts 248°
2026-04-24 02:56 12.98123 80.14357 857 ft 167 kts 246°
2026-04-24 02:56 12.97697 80.13269 1344 ft 168 kts 246°
2026-04-24 02:56 12.97247 80.12130 1696 ft 175 kts 246°
2026-04-24 02:56 12.96786 80.10954 1984 ft 182 kts 246°
2026-04-24 02:57 12.96446 80.09684 2236 ft 192 kts 266°
2026-04-24 02:57 12.96661 80.08316 2522 ft 199 kts 283°
2026-04-24 02:57 12.97042 80.06930 2793 ft 208 kts 286°
2026-04-24 02:57 12.97470 80.05487 3071 ft 217 kts 287°
2026-04-24 02:58 12.97931 80.03945 3231 ft 238 kts 286°
2026-04-24 02:58 12.98416 80.02272 3532 ft 254 kts 286°
2026-04-24 02:58 12.98923 80.00489 3935 ft 266 kts 286°
2026-04-24 02:58 12.99440 79.98657 4529 ft 270 kts 286°
2026-04-24 02:59 12.99959 79.96820 5261 ft 268 kts 287°
2026-04-24 02:59 13.00480 79.94991 5944 ft 270 kts 287°
2026-04-24 02:59 13.01007 79.93125 6480 ft 276 kts 287°
2026-04-24 02:59 13.01544 79.91210 6966 ft 284 kts 287°
2026-04-24 03:00 13.02097 79.89247 7496 ft 290 kts 287°
2026-04-24 03:00 13.02664 79.87254 8053 ft 295 kts 287°
2026-04-24 03:00 13.03240 79.85213 8564 ft 301 kts 287°
2026-04-24 03:00 13.03817 79.83150 9164 ft 303 kts 287°
2026-04-24 03:01 13.04397 79.81072 9785 ft 304 kts 287°
2026-04-24 03:01 13.04979 79.78983 10297 ft 311 kts 287°
2026-04-24 03:01 13.05587 79.76804 10548 ft 326 kts 287°
2026-04-24 03:01 13.06141 79.74830 10780 ft 340 kts 288°
2026-04-24 03:02 13.06794 79.72513 11071 ft 354 kts 288°
2026-04-24 03:02 13.07485 79.70065 11589 ft 362 kts 288°
2026-04-24 03:02 13.08187 79.67582 12300 ft 364 kts 288°
2026-04-24 03:02 13.08890 79.65095 13041 ft 364 kts 288°
2026-04-24 03:03 13.09596 79.62598 13731 ft 366 kts 288°
2026-04-24 03:03 13.10312 79.60091 14374 ft 369 kts 288°
2026-04-24 03:03 13.11029 79.57550 14964 ft 373 kts 287°
2026-04-24 03:03 13.11741 79.54982 15548 ft 377 kts 286°
2026-04-24 03:04 13.12462 79.52392 16189 ft 379 kts 285°
2026-04-24 03:04 13.13193 79.49796 16823 ft 381 kts 286°
2026-04-24 03:04 13.13933 79.47177 17401 ft 384 kts 286°
2026-04-24 03:04 13.14682 79.44536 17933 ft 389 kts 286°
2026-04-24 03:05 13.15439 79.41869 18460 ft 393 kts 286°
2026-04-24 03:05 13.16205 79.39169 18987 ft 397 kts 286°
2026-04-24 03:05 13.16974 79.36446 19532 ft 400 kts 285°
2026-04-24 03:05 13.17727 79.33704 20080 ft 402 kts 285°
2026-04-24 03:06 13.18492 79.30941 20629 ft 404 kts 285°
2026-04-24 03:06 13.19271 79.28165 21149 ft 407 kts 285°
2026-04-24 03:06 13.20059 79.25379 21686 ft 409 kts 286°
2026-04-24 03:06 13.20856 79.22583 22242 ft 410 kts 286°
2026-04-24 03:07 13.21659 79.19772 22749 ft 412 kts 286°
2026-04-24 03:07 13.22469 79.16944 23196 ft 416 kts 286°
2026-04-24 03:07 13.23282 79.14092 23605 ft 420 kts 285°
2026-04-24 03:07 13.24085 79.11202 24012 ft 424 kts 285°
2026-04-24 03:08 13.24883 79.08280 24446 ft 428 kts 285°
2026-04-24 03:08 13.26492 79.02380 25342 ft 433 kts 285°
2026-04-24 03:08 13.27324 78.99414 25791 ft 435 kts 285°
2026-04-24 03:09 13.28153 78.96437 26227 ft 437 kts 285°
2026-04-24 03:09 13.28958 78.93438 26629 ft 437 kts 283°
2026-04-24 03:09 13.29534 78.90369 26972 ft 441 kts 277°
2026-04-24 03:09 13.29786 78.87233 27288 ft 444 kts 270°
2026-04-24 03:10 13.29747 78.84064 27670 ft 445 kts 265°
2026-04-24 03:10 13.29503 78.80925 28222 ft 441 kts 263°
2026-04-24 03:10 13.29151 78.77819 28780 ft 438 kts 262°
2026-04-24 03:10 13.28768 78.74720 29142 ft 439 kts 262°
2026-04-24 03:11 13.28395 78.71598 29331 ft 445 kts 262°
2026-04-24 03:11 13.28056 78.68428 29489 ft 451 kts 263°
2026-04-24 03:11 13.27760 78.65219 29730 ft 454 kts 264°
2026-04-24 03:11 13.27496 78.62000 30072 ft 455 kts 264°
2026-04-24 03:12 13.27260 78.58773 30453 ft 454 kts 265°
2026-04-24 03:12 13.27036 78.55542 30795 ft 455 kts 265°
2026-04-24 03:12 13.26811 78.52313 31102 ft 455 kts 265°
2026-04-24 03:12 13.26585 78.49081 31408 ft 456 kts 265°
2026-04-24 03:13 13.26358 78.45840 31727 ft 456 kts 265°
2026-04-24 03:13 13.26130 78.42599 32065 ft 456 kts 265°
2026-04-24 03:13 13.25904 78.39371 32409 ft 455 kts 265°
2026-04-24 03:13 13.25680 78.36144 32784 ft 453 kts 265°
2026-04-24 03:14 13.25460 78.32939 33160 ft 451 kts 265°
2026-04-24 03:14 13.25242 78.29751 33504 ft 449 kts 265°
2026-04-24 03:14 13.25014 78.26569 33815 ft 448 kts 264°
2026-04-24 03:14 13.24779 78.23393 34100 ft 447 kts 264°
2026-04-24 03:15 13.24552 78.20222 34358 ft 447 kts 265°
2026-04-24 03:15 13.24321 78.17053 34607 ft 446 kts 264°
2026-04-24 03:15 13.24075 78.13891 34855 ft 446 kts 264°
2026-04-24 03:15 13.23903 78.11599 35034 ft 445 kts 264°
2026-04-24 03:16 13.23676 78.08442 35282 ft 444 kts 265°
2026-04-24 03:16 13.23456 78.05293 35529 ft 443 kts 265°
2026-04-24 03:16 13.23241 78.02149 35776 ft 442 kts 265°
2026-04-24 03:16 13.23028 77.99010 35955 ft 442 kts 265°
2026-04-24 03:17 13.22815 77.95866 36055 ft 444 kts 265°
2026-04-24 03:17 13.22363 77.89506 36074 ft 453 kts 265°
2026-04-24 03:18 13.21907 77.83015 36075 ft 462 kts 265°
2026-04-24 03:18 13.21441 77.76396 36077 ft 470 kts 265°
2026-04-24 03:19 13.21253 77.69680 36074 ft 474 kts 274°
2026-04-24 03:19 13.22686 77.63099 36078 ft 476 kts 289°
2026-04-24 03:20 13.25368 77.56897 36077 ft 478 kts 295°
2026-04-24 03:20 13.28364 77.50821 36073 ft 477 kts 295°
2026-04-24 03:21 13.31175 77.44669 36075 ft 477 kts 292°
2026-04-24 03:21 13.33760 77.38417 36075 ft 477 kts 291°
2026-04-24 03:22 13.36257 77.32134 36075 ft 477 kts 291°
2026-04-24 03:22 13.38768 77.25850 36077 ft 477 kts 291°
2026-04-24 03:23 13.41338 77.19591 36076 ft 477 kts 291°
2026-04-24 03:23 13.43926 77.13334 36076 ft 477 kts 291°
2026-04-24 03:24 13.46490 77.07069 36076 ft 477 kts 291°
2026-04-24 03:24 13.49057 77.00812 36076 ft 477 kts 291°
2026-04-24 03:25 13.51609 76.94540 36076 ft 477 kts 291°
2026-04-24 03:25 13.54138 76.88262 36075 ft 477 kts 291°
2026-04-24 03:26 13.56681 76.81989 36068 ft 477 kts 291°
2026-04-24 03:26 13.59228 76.75709 36067 ft 477 kts 291°
2026-04-24 03:27 13.61774 76.69433 36067 ft 477 kts 291°
2026-04-24 03:27 13.64317 76.63168 36068 ft 477 kts 291°
2026-04-24 03:28 13.66871 76.56879 36065 ft 477 kts 291°
2026-04-24 03:28 13.69422 76.50604 36065 ft 477 kts 291°
2026-04-24 03:29 13.71975 76.44325 36064 ft 477 kts 291°
2026-04-24 03:29 13.74525 76.38056 36061 ft 477 kts 291°
2026-04-24 03:30 13.77502 76.30744 36061 ft 474 kts 290°
2026-04-24 03:30 13.79628 76.25545 36059 ft 473 kts 290°
2026-04-24 03:31 13.82156 76.19310 36061 ft 474 kts 290°
2026-04-24 03:31 13.84668 76.13066 36060 ft 474 kts 290°
2026-04-24 03:32 13.87177 76.06815 36059 ft 474 kts 290°
2026-04-24 03:32 13.89687 76.00543 36059 ft 475 kts 291°
2026-04-24 03:33 13.92217 75.94275 36058 ft 475 kts 291°
2026-04-24 03:33 13.94742 75.88001 36058 ft 475 kts 291°
2026-04-24 03:34 13.97268 75.81726 36058 ft 475 kts 291°
2026-04-24 03:34 13.99794 75.75451 36058 ft 475 kts 291°
2026-04-24 03:35 14.02319 75.69184 36057 ft 475 kts 291°
2026-04-24 03:35 14.04848 75.62910 36057 ft 475 kts 291°
2026-04-24 03:36 14.07369 75.56631 36059 ft 475 kts 290°
2026-04-24 03:36 14.09980 75.50394 36061 ft 476 kts 294°
2026-04-24 03:37 14.13047 75.44368 36064 ft 477 kts 297°
2026-04-24 03:37 14.16305 75.38430 36064 ft 477 kts 297°
2026-04-24 03:38 14.19522 75.32480 36063 ft 477 kts 297°
2026-04-24 03:38 14.22655 75.26473 36060 ft 476 kts 296°
2026-04-24 03:39 14.25741 75.20454 36062 ft 476 kts 296°
2026-04-24 03:39 14.28839 75.14426 36062 ft 477 kts 296°
2026-04-24 03:40 14.32491 75.07421 36062 ft 477 kts 296°
2026-04-24 03:40 14.35085 75.02417 36064 ft 477 kts 296°
2026-04-24 03:41 14.38204 74.96402 36058 ft 477 kts 296°
2026-04-24 03:41 14.41330 74.90392 36054 ft 477 kts 296°
2026-04-24 03:42 14.44453 74.84372 36052 ft 477 kts 296°
2026-04-24 03:42 14.47550 74.78346 36052 ft 476 kts 296°
2026-04-24 03:43 14.50655 74.72353 36052 ft 475 kts 296°
2026-04-24 03:43 14.53815 74.66382 36052 ft 475 kts 296°
2026-04-24 03:44 14.56964 74.60411 36052 ft 475 kts 296°
2026-04-24 03:44 14.60111 74.54432 36053 ft 475 kts 296°
2026-04-24 03:45 14.63258 74.48452 36051 ft 475 kts 296°
2026-04-24 03:45 14.66403 74.42473 36054 ft 475 kts 296°
2026-04-24 03:46 14.69558 74.36498 36051 ft 475 kts 296°
2026-04-24 03:46 14.72710 74.30525 36052 ft 475 kts 296°
2026-04-24 03:47 14.75865 74.24551 36052 ft 475 kts 296°
2026-04-24 03:47 14.79021 74.18577 36052 ft 475 kts 296°
2026-04-24 03:48 14.82185 74.12598 36052 ft 475 kts 296°
2026-04-24 03:48 14.85386 74.06648 36052 ft 475 kts 296°
2026-04-24 03:49 14.88559 74.00680 36052 ft 475 kts 296°
2026-04-24 03:49 14.91662 73.94678 36052 ft 475 kts 295°
2026-04-24 03:50 14.94771 73.88681 36052 ft 475 kts 296°
2026-04-24 03:50 14.97906 73.82688 36052 ft 475 kts 296°
2026-04-24 03:51 15.01060 73.76702 36052 ft 475 kts 296°
2026-04-24 03:51 15.04214 73.70716 36052 ft 475 kts 296°
2026-04-24 03:52 15.07327 73.64714 36052 ft 475 kts 295°
2026-04-24 03:52 15.10446 73.58711 36051 ft 475 kts 296°
2026-04-24 03:53 15.13568 73.52706 36052 ft 475 kts 296°
2026-04-24 03:53 15.16690 73.46709 36052 ft 475 kts 296°
2026-04-24 03:54 15.19815 73.40699 36052 ft 475 kts 296°
2026-04-24 03:54 15.22934 73.34705 36052 ft 475 kts 296°
2026-04-24 03:55 15.26061 73.28699 36052 ft 475 kts 296°
2026-04-24 03:55 15.29188 73.22697 36052 ft 475 kts 296°
2026-04-24 03:56 15.32320 73.16688 36056 ft 475 kts 296°
2026-04-24 03:56 15.35424 73.10675 36050 ft 474 kts 295°
2026-04-24 03:57 15.38517 73.04650 36052 ft 475 kts 296°
2026-04-24 03:57 15.41634 72.98638 36052 ft 475 kts 295°
2026-04-24 03:58 15.44720 72.92615 36052 ft 475 kts 296°
2026-04-24 03:58 15.47820 72.86595 36052 ft 475 kts 295°
2026-04-24 03:59 15.50924 72.80574 36052 ft 475 kts 295°
2026-04-24 03:59 15.54028 72.74550 36052 ft 475 kts 295°
2026-04-24 04:00 15.57130 72.68533 36052 ft 475 kts 295°
2026-04-24 04:00 15.60237 72.62508 36056 ft 475 kts 295°
2026-04-24 04:01 15.63343 72.56487 36050 ft 474 kts 296°
2026-04-24 04:01 15.66451 72.50468 36052 ft 475 kts 296°
2026-04-24 04:02 15.69559 72.44437 36052 ft 474 kts 295°
2026-04-24 04:02 15.72640 72.38403 36052 ft 474 kts 295°
2026-04-24 04:03 15.75713 72.32361 36049 ft 474 kts 295°
2026-04-24 04:03 15.78790 72.26318 36052 ft 474 kts 295°
2026-04-24 04:04 15.81865 72.20276 36052 ft 474 kts 295°
2026-04-24 04:04 15.84939 72.14240 36052 ft 474 kts 295°
2026-04-24 04:05 15.88021 72.08193 36052 ft 474 kts 295°
2026-04-24 04:05 15.91101 72.02155 36052 ft 474 kts 295°
2026-04-24 04:06 15.94184 71.96113 36052 ft 474 kts 295°
2026-04-24 04:06 15.97270 71.90069 36052 ft 474 kts 295°
2026-04-24 04:07 16.00357 71.84028 36052 ft 474 kts 295°
2026-04-24 04:07 16.03447 71.77984 36052 ft 474 kts 295°
2026-04-24 04:08 16.06536 71.71944 36052 ft 474 kts 295°
2026-04-24 04:08 16.09622 71.65902 36052 ft 474 kts 295°
2026-04-24 04:09 16.12731 71.59867 36052 ft 475 kts 296°
2026-04-24 04:09 16.15866 71.53838 36052 ft 475 kts 296°
2026-04-24 04:10 16.19005 71.47820 36052 ft 475 kts 296°
2026-04-24 04:10 16.22149 71.41796 36052 ft 475 kts 296°
2026-04-24 04:11 16.26861 71.32770 36052 ft 475 kts 296°
2026-04-24 04:11 16.30007 71.26743 36052 ft 475 kts 296°
2026-04-24 04:12 16.33148 71.20724 36052 ft 475 kts 296°
2026-04-24 04:12 16.36293 71.14698 36052 ft 475 kts 296°
2026-04-24 04:13 16.39438 71.08670 36052 ft 475 kts 296°
2026-04-24 04:13 16.42579 71.02648 36052 ft 475 kts 296°
2026-04-24 04:14 16.45723 70.96619 36052 ft 475 kts 296°
2026-04-24 04:14 16.48860 70.90588 36057 ft 475 kts 296°
2026-04-24 04:15 16.51993 70.84556 36050 ft 474 kts 295°
2026-04-24 04:15 16.55103 70.78511 36050 ft 474 kts 296°
2026-04-24 04:16 16.58238 70.72471 36052 ft 475 kts 296°
2026-04-24 04:16 16.61374 70.66451 36054 ft 470 kts 295°
2026-04-24 04:17 16.64485 70.60524 36052 ft 466 kts 295°
2026-04-24 04:17 16.67594 70.54623 36052 ft 467 kts 295°
2026-04-24 04:18 16.70690 70.48681 36047 ft 466 kts 295°
2026-04-24 04:18 16.73792 70.42748 36045 ft 467 kts 295°
2026-04-24 04:19 16.76887 70.36821 36051 ft 467 kts 295°
2026-04-24 04:19 16.79987 70.30885 36051 ft 467 kts 295°
2026-04-24 04:20 16.83091 70.24949 36042 ft 467 kts 295°
2026-04-24 04:20 16.86193 70.18994 36039 ft 470 kts 296°
2026-04-24 04:21 16.89296 70.13005 36033 ft 470 kts 296°
2026-04-24 04:21 16.92393 70.07029 36021 ft 469 kts 296°
2026-04-24 04:22 16.95505 70.01049 36014 ft 470 kts 296°
2026-04-24 04:22 16.98593 69.95054 36014 ft 470 kts 296°
2026-04-24 04:23 17.01691 69.89066 36019 ft 470 kts 296°
2026-04-24 04:23 17.04786 69.83076 36019 ft 469 kts 296°
2026-04-24 04:24 17.07881 69.77088 36015 ft 469 kts 296°
2026-04-24 04:24 17.10977 69.71103 36016 ft 469 kts 296°
2026-04-24 04:25 17.14075 69.65119 36016 ft 469 kts 296°
2026-04-24 04:25 17.17171 69.59134 36016 ft 469 kts 295°
2026-04-24 04:26 17.20234 69.53116 36018 ft 469 kts 295°
2026-04-24 04:26 17.23319 69.47127 36019 ft 469 kts 296°
2026-04-24 04:27 17.26426 69.41141 36019 ft 469 kts 296°
2026-04-24 04:27 17.29539 69.35155 36020 ft 469 kts 296°
2026-04-24 04:28 17.32626 69.29166 36021 ft 469 kts 296°
2026-04-24 04:28 17.35726 69.23169 36021 ft 469 kts 296°
2026-04-24 04:29 17.38818 69.17175 36021 ft 469 kts 296°
2026-04-24 04:29 17.41913 69.11187 36013 ft 469 kts 296°
2026-04-24 04:30 17.45011 69.05192 36010 ft 469 kts 296°
2026-04-24 04:30 17.48112 68.99192 36008 ft 469 kts 296°
2026-04-24 04:31 17.51213 68.93202 36012 ft 469 kts 296°
2026-04-24 04:31 17.54294 68.87197 36011 ft 469 kts 295°
2026-04-24 04:32 17.57353 68.81176 36010 ft 469 kts 296°
2026-04-24 04:32 17.60442 68.75171 36016 ft 470 kts 295°
2026-04-24 04:33 17.63493 68.69158 36010 ft 469 kts 295°
2026-04-24 04:33 17.66567 68.63139 36014 ft 469 kts 295°
2026-04-24 04:34 17.69637 68.57127 36013 ft 469 kts 295°
2026-04-24 04:34 17.72708 68.51112 36014 ft 469 kts 295°
2026-04-24 04:35 17.75777 68.45104 36014 ft 469 kts 295°
2026-04-24 04:35 17.78855 68.39083 36017 ft 469 kts 296°
2026-04-24 04:36 17.81931 68.33071 36019 ft 469 kts 296°
2026-04-24 04:36 17.85008 68.27055 36014 ft 469 kts 296°
2026-04-24 04:37 17.88087 68.21042 36015 ft 469 kts 295°
2026-04-24 04:37 17.90162 68.16938 36017 ft 469 kts 295°
2026-04-24 04:38 17.92906 68.11518 36018 ft 475 kts 295°
2026-04-24 04:38 17.96018 68.05414 36017 ft 475 kts 295°
2026-04-24 04:39 17.99138 67.99306 36017 ft 475 kts 295°
2026-04-24 04:39 18.02204 67.93219 36017 ft 468 kts 295°
2026-04-24 04:40 18.05217 67.87179 36017 ft 468 kts 294°
2026-04-24 04:40 18.07274 67.80776 36019 ft 463 kts 276°
2026-04-24 04:41 18.07280 67.74097 36020 ft 458 kts 258°
2026-04-24 04:41 18.05485 67.67725 36023 ft 456 kts 248°
2026-04-24 04:42 18.03251 67.61501 36022 ft 456 kts 250°
2026-04-24 04:42 18.01385 67.55140 36025 ft 457 kts 254°
2026-04-24 04:43 17.99917 67.48669 36034 ft 457 kts 256°
2026-04-24 04:43 17.98592 67.42166 36044 ft 456 kts 257°
2026-04-24 04:44 17.97242 67.35670 36045 ft 456 kts 256°
2026-04-24 04:44 17.95845 67.29179 36045 ft 456 kts 256°
2026-04-24 04:45 17.94408 67.22705 36045 ft 456 kts 256°
2026-04-24 04:45 17.92993 67.16227 36045 ft 456 kts 256°
2026-04-24 04:46 17.91565 67.09751 36046 ft 456 kts 255°
2026-04-24 04:46 17.90097 67.03290 36046 ft 456 kts 255°
2026-04-24 04:47 17.88651 66.96817 36045 ft 456 kts 255°
2026-04-24 04:47 17.87178 66.90358 36046 ft 456 kts 256°
2026-04-24 04:48 17.85715 66.83893 36046 ft 456 kts 255°
2026-04-24 04:48 17.84256 66.77433 36046 ft 456 kts 255°
2026-04-24 04:49 17.82798 66.70967 36045 ft 456 kts 255°
2026-04-24 04:49 17.81341 66.64500 36045 ft 456 kts 255°
2026-04-24 04:50 17.79888 66.58041 36045 ft 456 kts 255°
2026-04-24 04:50 17.78436 66.51578 36044 ft 456 kts 255°
2026-04-24 04:51 17.76986 66.45115 36044 ft 456 kts 256°
2026-04-24 04:51 17.75538 66.38652 36045 ft 456 kts 256°
2026-04-24 04:52 17.74087 66.32190 36046 ft 456 kts 255°
2026-04-24 04:52 17.72622 66.25728 36045 ft 456 kts 255°
2026-04-24 04:53 17.71124 66.19278 36045 ft 456 kts 255°
2026-04-24 04:53 17.69642 66.12826 36045 ft 456 kts 255°
2026-04-24 04:54 17.68162 66.06376 36044 ft 456 kts 255°
2026-04-24 04:54 17.66685 65.99923 36044 ft 456 kts 255°
2026-04-24 04:55 17.65209 65.93466 36044 ft 456 kts 255°
2026-04-24 04:55 17.63738 65.87017 36044 ft 456 kts 255°
2026-04-24 04:56 17.62275 65.80561 36042 ft 456 kts 255°
2026-04-24 04:56 17.60800 65.74107 36042 ft 456 kts 255°
2026-04-24 04:57 17.59299 65.67669 36043 ft 456 kts 255°
2026-04-24 04:57 17.57789 65.61237 36042 ft 456 kts 255°
2026-04-24 04:58 17.56273 65.54793 36042 ft 456 kts 255°
2026-04-24 04:58 17.54757 65.48352 36042 ft 456 kts 255°
2026-04-24 04:59 17.53240 65.41911 36041 ft 456 kts 255°
2026-04-24 04:59 17.51726 65.35481 36041 ft 456 kts 255°
2026-04-24 05:00 17.50211 65.29046 36040 ft 456 kts 255°
2026-04-24 05:00 17.48695 65.22612 36040 ft 456 kts 255°
2026-04-24 05:01 17.47199 65.16168 36040 ft 456 kts 255°
2026-04-24 05:01 17.45705 65.09735 36038 ft 456 kts 255°
2026-04-24 05:02 17.44232 65.03289 36038 ft 456 kts 256°
2026-04-24 05:02 17.42774 64.96840 36038 ft 456 kts 255°
2026-04-24 05:03 17.41228 64.90416 36037 ft 456 kts 255°
2026-04-24 05:03 17.39690 64.83998 36036 ft 456 kts 255°
2026-04-24 05:04 17.38165 64.77562 36037 ft 456 kts 255°
2026-04-24 05:04 17.36647 64.71139 36037 ft 456 kts 255°
2026-04-24 05:05 17.35118 64.64707 36035 ft 456 kts 255°
2026-04-24 05:05 17.33595 64.58284 36035 ft 456 kts 255°
2026-04-24 05:06 17.32074 64.51856 36035 ft 456 kts 255°
2026-04-24 05:06 17.30555 64.45434 36034 ft 456 kts 255°
2026-04-24 05:07 17.29017 64.39011 36032 ft 456 kts 254°
2026-04-24 05:07 17.27477 64.32594 36032 ft 456 kts 255°
2026-04-24 05:08 17.26080 64.26141 36031 ft 456 kts 256°
2026-04-24 05:08 17.24694 64.19685 36030 ft 456 kts 256°
2026-04-24 05:09 17.23296 64.13228 36029 ft 456 kts 256°
2026-04-24 05:09 17.21893 64.06771 36030 ft 456 kts 256°
2026-04-24 05:10 17.20491 64.00319 36030 ft 456 kts 256°
2026-04-24 05:10 17.19087 63.93864 36028 ft 456 kts 256°
2026-04-24 05:11 17.17685 63.87415 36027 ft 456 kts 256°
2026-04-24 05:11 17.16280 63.80957 36029 ft 457 kts 256°
2026-04-24 05:12 17.14878 63.74512 36026 ft 456 kts 256°
2026-04-24 05:12 17.13475 63.68061 36025 ft 456 kts 256°
2026-04-24 05:13 17.11368 63.58391 36024 ft 456 kts 256°
2026-04-24 05:14 17.09961 63.51948 36024 ft 456 kts 256°
2026-04-24 05:14 17.08528 63.45509 36022 ft 456 kts 256°
2026-04-24 05:15 17.07101 63.39066 36021 ft 456 kts 256°
2026-04-24 05:15 17.05675 63.32625 36021 ft 456 kts 256°
2026-04-24 05:16 17.04251 63.26186 36021 ft 456 kts 256°
2026-04-24 05:16 17.02819 63.19729 36017 ft 461 kts 255°
2026-04-24 05:17 17.01341 63.13185 36023 ft 462 kts 255°
2026-04-24 05:17 16.99857 63.06764 36021 ft 455 kts 255°
2026-04-24 05:18 16.98280 63.00367 36018 ft 456 kts 254°
2026-04-24 05:18 16.96698 62.93976 36017 ft 456 kts 255°
2026-04-24 05:19 16.95155 62.87569 36017 ft 456 kts 255°
2026-04-24 05:19 16.93598 62.81172 36017 ft 456 kts 255°
2026-04-24 05:20 16.92043 62.74770 36015 ft 456 kts 255°
2026-04-24 05:20 16.90492 62.68373 36015 ft 456 kts 255°
2026-04-24 05:21 16.88950 62.61983 36015 ft 454 kts 255°
2026-04-24 05:21 16.87420 62.55601 36014 ft 454 kts 255°
2026-04-24 05:22 16.85874 62.49208 36015 ft 455 kts 255°
2026-04-24 05:22 16.84335 62.42824 36016 ft 455 kts 255°
2026-04-24 05:23 16.82759 62.36442 36016 ft 455 kts 254°
2026-04-24 05:23 16.81183 62.30061 36014 ft 455 kts 255°
2026-04-24 05:24 16.79640 62.23679 36014 ft 455 kts 255°
2026-04-24 05:24 16.78066 62.17299 36014 ft 455 kts 255°
2026-04-24 05:25 16.76503 62.10921 36014 ft 455 kts 255°
2026-04-24 05:25 16.74929 62.04539 36012 ft 455 kts 254°
2026-04-24 05:26 16.73359 61.98166 36012 ft 455 kts 255°
2026-04-24 05:26 16.71788 61.91786 36012 ft 455 kts 255°
2026-04-24 05:27 16.70218 61.85408 36011 ft 455 kts 255°
2026-04-24 05:27 16.68639 61.79037 36011 ft 455 kts 255°
2026-04-24 05:28 16.67049 61.72664 36011 ft 455 kts 254°
2026-04-24 05:28 16.65449 61.66300 36011 ft 455 kts 254°
2026-04-24 05:29 16.63851 61.59933 36010 ft 455 kts 254°
2026-04-24 05:29 16.62255 61.53560 36010 ft 455 kts 254°
2026-04-24 05:30 16.60662 61.47195 36009 ft 455 kts 254°
2026-04-24 05:30 16.59071 61.40825 36009 ft 455 kts 254°
2026-04-24 05:31 16.57482 61.34457 36008 ft 455 kts 254°
2026-04-24 05:31 16.55894 61.28086 36008 ft 455 kts 254°
2026-04-24 05:32 16.54309 61.21719 36008 ft 455 kts 254°
2026-04-24 05:32 16.52727 61.15353 36008 ft 455 kts 254°
2026-04-24 05:33 16.51144 61.08981 36007 ft 455 kts 255°
2026-04-24 05:33 16.49563 61.02617 36007 ft 455 kts 254°
2026-04-24 05:34 16.47146 60.93082 36006 ft 455 kts 254°
2026-04-24 05:34 16.45511 60.86726 36006 ft 455 kts 254°
2026-04-24 05:35 16.43873 60.80376 36006 ft 455 kts 254°
2026-04-24 05:35 16.42260 60.74022 36006 ft 455 kts 254°
2026-04-24 05:36 16.40646 60.67670 36005 ft 455 kts 254°
2026-04-24 05:36 16.39034 60.61316 36005 ft 455 kts 254°
2026-04-24 05:37 16.37423 60.54960 36005 ft 455 kts 254°
2026-04-24 05:37 16.35814 60.48606 36005 ft 455 kts 254°
2026-04-24 05:38 16.34207 60.42251 36005 ft 455 kts 254°
2026-04-24 05:38 16.32601 60.35892 36004 ft 455 kts 254°
2026-04-24 05:39 16.31007 60.29539 36004 ft 455 kts 255°
2026-04-24 05:39 16.29415 60.23176 36004 ft 455 kts 254°
2026-04-24 05:40 16.27792 60.16833 36004 ft 455 kts 254°
2026-04-24 05:40 16.26156 60.10485 36004 ft 455 kts 254°
2026-04-24 05:41 16.24519 60.04146 36001 ft 455 kts 254°
2026-04-24 05:41 16.23608 59.97650 35998 ft 458 kts 268°
2026-04-24 05:42 16.24202 59.91054 35995 ft 461 kts 278°
2026-04-24 05:42 16.25517 59.84545 35993 ft 461 kts 280°
2026-04-24 05:43 16.26853 59.78035 35994 ft 461 kts 279°
2026-04-24 05:43 16.27978 59.71487 35992 ft 460 kts 277°
2026-04-24 05:44 16.28942 59.64919 35992 ft 460 kts 276°
2026-04-24 05:44 16.29903 59.58344 35989 ft 460 kts 277°
2026-04-24 05:45 16.30890 59.51783 35991 ft 460 kts 277°
2026-04-24 05:45 16.31884 59.45221 35990 ft 460 kts 277°
2026-04-24 05:46 16.32882 59.38649 35990 ft 460 kts 277°
2026-04-24 05:46 16.33883 59.32088 35990 ft 460 kts 277°
2026-04-24 05:47 16.34917 59.25527 35989 ft 461 kts 277°
2026-04-24 05:47 16.35979 59.18962 35989 ft 461 kts 277°
2026-04-24 05:48 16.36953 59.12395 35989 ft 460 kts 276°
2026-04-24 05:48 16.37911 59.05815 35988 ft 460 kts 277°
2026-04-24 05:49 16.38897 58.99248 35987 ft 461 kts 277°
2026-04-24 05:49 16.39881 58.92671 35987 ft 460 kts 277°
2026-04-24 05:50 16.40863 58.86103 35987 ft 461 kts 277°
2026-04-24 05:50 16.41846 58.79527 35986 ft 461 kts 277°
2026-04-24 05:51 16.42831 58.72950 35986 ft 461 kts 277°
2026-04-24 05:51 16.43817 58.66379 35986 ft 461 kts 277°
2026-04-24 05:52 16.44808 58.59799 35986 ft 461 kts 277°
2026-04-24 05:52 16.45799 58.53225 35985 ft 461 kts 277°
2026-04-24 05:53 16.46759 58.46649 35984 ft 460 kts 276°
2026-04-24 05:53 16.47691 58.40066 35984 ft 461 kts 276°
2026-04-24 05:54 16.48647 58.33510 35983 ft 457 kts 275°
2026-04-24 05:54 16.49578 58.26970 35983 ft 458 kts 275°
2026-04-24 05:55 16.50529 58.20422 35983 ft 458 kts 275°
2026-04-24 05:55 16.51477 58.13882 35983 ft 458 kts 275°
2026-04-24 05:56 16.52429 58.07340 35981 ft 458 kts 275°
2026-04-24 05:56 16.53383 58.00792 35981 ft 458 kts 275°
2026-04-24 05:57 16.54335 57.94318 35980 ft 448 kts 274°
2026-04-24 05:57 16.55270 57.87920 35980 ft 449 kts 274°
2026-04-24 05:58 16.56211 57.81508 35979 ft 449 kts 274°
2026-04-24 05:58 16.57154 57.75093 35980 ft 447 kts 275°
2026-04-24 05:59 16.58087 57.68820 35978 ft 437 kts 275°
2026-04-24 05:59 16.58969 57.62539 35978 ft 439 kts 275°
2026-04-24 06:00 16.59856 57.56261 35977 ft 439 kts 275°
2026-04-24 06:00 16.60752 57.49945 35974 ft 446 kts 275°
2026-04-24 06:01 16.61661 57.43483 35980 ft 456 kts 275°
2026-04-24 06:01 16.62584 57.36948 35976 ft 457 kts 275°
2026-04-24 06:02 16.63511 57.30416 35975 ft 456 kts 275°
2026-04-24 06:02 16.64443 57.23888 35975 ft 456 kts 275°
2026-04-24 06:03 16.65370 57.17496 35974 ft 438 kts 275°
2026-04-24 06:03 16.66265 57.11287 35974 ft 433 kts 275°
2026-04-24 06:04 16.67157 57.05072 35973 ft 435 kts 275°
2026-04-24 06:04 16.68093 56.98809 35969 ft 443 kts 275°
2026-04-24 06:05 16.69054 56.92389 35971 ft 455 kts 276°
2026-04-24 06:05 16.70035 56.85828 35971 ft 462 kts 276°
2026-04-24 06:06 16.71020 56.79231 35968 ft 461 kts 276°
2026-04-24 06:06 16.71506 56.75971 35967 ft 450 kts 276°
2026-04-24 06:06 16.71985 56.72781 35966 ft 444 kts 275°
2026-04-24 06:07 16.72926 56.66505 35961 ft 433 kts 274°
2026-04-24 06:07 16.73838 56.60321 35961 ft 433 kts 274°
2026-04-24 06:08 16.74749 56.54118 35963 ft 434 kts 274°
2026-04-24 06:08 16.75684 56.47926 35962 ft 434 kts 274°
2026-04-24 06:09 16.76623 56.41716 35958 ft 434 kts 274°
2026-04-24 06:09 16.77361 56.36838 35959 ft 434 kts 274°
2026-04-24 06:10 16.78311 56.30637 35960 ft 437 kts 276°
2026-04-24 06:11 16.79716 56.21198 35958 ft 440 kts 275°
2026-04-24 06:11 16.80625 56.14865 35952 ft 447 kts 275°
2026-04-24 06:12 16.81554 56.08387 35960 ft 458 kts 276°
2026-04-24 06:12 16.82523 56.01747 35963 ft 469 kts 276°
2026-04-24 06:13 16.83503 55.95031 35955 ft 469 kts 276°
2026-04-24 06:13 16.84484 55.88324 35955 ft 468 kts 276°
2026-04-24 06:14 16.85466 55.81625 35959 ft 468 kts 276°
2026-04-24 06:14 16.86453 55.74925 35955 ft 469 kts 276°
2026-04-24 06:15 16.87441 55.68216 35950 ft 469 kts 276°
2026-04-24 06:15 16.88421 55.61501 35946 ft 469 kts 276°
2026-04-24 06:16 16.88933 55.54758 35945 ft 467 kts 269°
2026-04-24 06:16 16.88862 55.47999 35939 ft 467 kts 266°
2026-04-24 06:17 16.88671 55.41245 35939 ft 466 kts 267°
2026-04-24 06:17 16.88587 55.34492 35944 ft 466 kts 268°
2026-04-24 06:18 16.88621 55.27733 35939 ft 467 kts 269°
2026-04-24 06:18 16.88699 55.20962 35936 ft 467 kts 269°
2026-04-24 06:19 16.88744 55.14199 35941 ft 466 kts 268°
2026-04-24 06:19 16.88771 55.07445 35942 ft 467 kts 269°
2026-04-24 06:20 16.88827 55.00677 35936 ft 467 kts 268°
2026-04-24 06:20 16.88870 54.93906 35938 ft 467 kts 268°
2026-04-24 06:21 16.88913 54.87151 35941 ft 467 kts 268°
2026-04-24 06:21 16.88958 54.80479 35936 ft 454 kts 268°
2026-04-24 06:22 16.88982 54.73989 35934 ft 442 kts 267°
2026-04-24 06:22 16.88992 54.67661 35939 ft 435 kts 266°
2026-04-24 06:23 16.89012 54.61339 35941 ft 437 kts 266°
2026-04-24 06:23 16.89031 54.55001 35934 ft 438 kts 266°
2026-04-24 06:24 16.89030 54.48655 35934 ft 437 kts 266°
2026-04-24 06:24 16.89005 54.42337 35940 ft 436 kts 266°
2026-04-24 06:25 16.88999 54.36009 35938 ft 438 kts 266°
2026-04-24 06:25 16.88997 54.29670 35934 ft 438 kts 266°
2026-04-24 06:26 16.88990 54.23328 35937 ft 436 kts 266°
2026-04-24 06:26 16.88979 54.17012 35940 ft 437 kts 266°
2026-04-24 06:27 16.88984 54.10675 35936 ft 438 kts 266°
2026-04-24 06:27 16.88985 54.04335 35934 ft 438 kts 266°
2026-04-24 06:28 16.88979 53.98006 35938 ft 436 kts 266°
2026-04-24 06:28 16.88984 53.91683 35940 ft 437 kts 266°
2026-04-24 06:29 16.89000 53.85338 35933 ft 440 kts 266°
2026-04-24 06:29 16.89002 53.78892 35934 ft 451 kts 267°
2026-04-24 06:30 16.89072 53.72294 35940 ft 458 kts 268°
2026-04-24 06:30 16.89234 53.65662 35937 ft 458 kts 269°
2026-04-24 06:31 16.89423 53.59029 35934 ft 458 kts 269°
2026-04-24 06:31 16.89570 53.52394 35937 ft 457 kts 268°
2026-04-24 06:32 16.89700 53.45774 35939 ft 458 kts 269°
2026-04-24 06:32 16.89858 53.39145 35935 ft 458 kts 268°
2026-04-24 06:33 16.90007 53.32512 35934 ft 458 kts 268°
2026-04-24 06:33 16.90148 53.25885 35938 ft 457 kts 269°
2026-04-24 06:34 16.90302 53.19359 35937 ft 447 kts 268°
2026-04-24 06:34 16.90589 53.12862 35934 ft 451 kts 272°
2026-04-24 06:35 16.91647 53.06408 35937 ft 454 kts 278°
2026-04-24 06:35 16.93124 53.00002 35939 ft 452 kts 281°
2026-04-24 06:36 16.94586 52.93713 35932 ft 450 kts 285°
2026-04-24 06:36 16.95956 52.87265 35934 ft 462 kts 283°
2026-04-24 06:37 16.97265 52.80642 35938 ft 469 kts 283°
2026-04-24 06:37 16.98547 52.73990 35937 ft 468 kts 283°
2026-04-24 06:38 16.99880 52.67350 35934 ft 468 kts 284°
2026-04-24 06:38 17.01221 52.60711 35934 ft 468 kts 283°
2026-04-24 06:39 17.02562 52.54071 35936 ft 468 kts 283°
2026-04-24 06:39 17.03897 52.47430 35935 ft 468 kts 283°
2026-04-24 06:40 17.05236 52.40788 35934 ft 468 kts 283°
2026-04-24 06:40 17.06545 52.34144 35934 ft 468 kts 283°
2026-04-24 06:41 17.07837 52.27489 35934 ft 468 kts 283°
2026-04-24 06:41 17.09135 52.20835 35934 ft 468 kts 283°
2026-04-24 06:42 17.10436 52.14176 35934 ft 468 kts 283°
2026-04-24 06:42 17.11738 52.07526 35934 ft 468 kts 283°
2026-04-24 06:43 17.13041 52.00875 35934 ft 468 kts 283°
2026-04-24 06:43 17.14347 51.94222 35934 ft 468 kts 283°
2026-04-24 06:44 17.15644 51.87610 35934 ft 455 kts 282°
2026-04-24 06:44 17.16895 51.81276 35933 ft 440 kts 282°
2026-04-24 06:45 17.18133 51.75039 35934 ft 440 kts 282°
2026-04-24 06:45 17.19376 51.68778 35934 ft 441 kts 282°
2026-04-24 06:46 17.20619 51.62522 35934 ft 441 kts 282°
2026-04-24 06:46 17.21841 51.56262 35934 ft 441 kts 282°
2026-04-24 06:47 17.22644 51.52136 35934 ft 441 kts 282°
2026-04-24 06:47 17.23836 51.45868 35934 ft 441 kts 282°
2026-04-24 06:48 17.25033 51.39602 35934 ft 441 kts 282°
2026-04-24 06:48 17.26233 51.33330 35934 ft 441 kts 282°
2026-04-24 06:49 17.27435 51.27061 35934 ft 441 kts 282°
2026-04-24 06:49 17.28638 51.20793 35934 ft 441 kts 282°
2026-04-24 06:50 17.29851 51.14462 35928 ft 451 kts 285°
2026-04-24 06:50 17.31102 51.07953 35937 ft 463 kts 285°
2026-04-24 06:51 17.32383 51.01324 35935 ft 467 kts 285°
2026-04-24 06:51 17.33664 50.94686 35933 ft 466 kts 285°
2026-04-24 06:52 17.34946 50.88048 35934 ft 466 kts 285°
2026-04-24 06:52 17.36222 50.81409 35934 ft 466 kts 284°
2026-04-24 06:53 17.37484 50.74773 35934 ft 466 kts 285°
2026-04-24 06:53 17.38723 50.68121 35934 ft 466 kts 284°
2026-04-24 06:54 17.39972 50.61474 35934 ft 467 kts 284°
2026-04-24 06:54 17.41218 50.54833 35939 ft 466 kts 285°
2026-04-24 06:55 17.42462 50.48189 35938 ft 466 kts 284°
2026-04-24 06:55 17.43715 50.41546 35938 ft 466 kts 285°
2026-04-24 06:56 17.44966 50.34912 35950 ft 465 kts 285°
2026-04-24 06:56 17.46225 50.28278 35955 ft 465 kts 285°
2026-04-24 06:57 17.47472 50.21644 35952 ft 466 kts 285°
2026-04-24 06:57 17.48730 50.15011 35952 ft 465 kts 285°
2026-04-24 06:58 17.49983 50.08382 35956 ft 465 kts 284°
2026-04-24 06:58 17.51182 50.01730 35956 ft 466 kts 284°
2026-04-24 06:59 17.52414 49.95093 35955 ft 465 kts 285°
2026-04-24 06:59 17.53643 49.88450 35957 ft 466 kts 284°
2026-04-24 07:00 17.54866 49.81807 35957 ft 465 kts 284°
2026-04-24 07:00 17.56087 49.75170 35956 ft 465 kts 284°
2026-04-24 07:01 17.57312 49.68528 35956 ft 465 kts 284°
2026-04-24 07:01 17.58542 49.61888 35961 ft 465 kts 284°
2026-04-24 07:02 17.59771 49.55247 35961 ft 465 kts 284°
2026-04-24 07:02 17.60997 49.48606 35961 ft 465 kts 284°
2026-04-24 07:03 17.62978 49.42248 35964 ft 457 kts 300°
2026-04-24 07:03 17.66437 49.36734 35967 ft 453 kts 311°
2026-04-24 07:04 17.70478 49.31697 35964 ft 452 kts 313°
2026-04-24 07:04 17.74495 49.26644 35963 ft 453 kts 311°
2026-04-24 07:05 17.78330 49.21415 35967 ft 453 kts 309°
2026-04-24 07:05 17.82033 49.16076 35973 ft 454 kts 308°
2026-04-24 07:06 17.85733 49.10744 35970 ft 453 kts 309°
2026-04-24 07:06 17.89451 49.05427 35970 ft 451 kts 308°
2026-04-24 07:07 17.93163 49.00153 35970 ft 451 kts 308°
2026-04-24 07:07 17.98743 48.92248 35979 ft 450 kts 308°
2026-04-24 07:08 18.02467 48.86974 35978 ft 450 kts 308°
2026-04-24 07:08 18.06190 48.81701 35977 ft 450 kts 308°
2026-04-24 07:09 18.09916 48.76431 35977 ft 450 kts 308°
2026-04-24 07:09 18.13627 48.71156 35984 ft 450 kts 308°
2026-04-24 07:10 18.17329 48.65861 35985 ft 450 kts 308°
2026-04-24 07:10 18.21026 48.60578 35984 ft 450 kts 308°
2026-04-24 07:11 18.24733 48.55283 35984 ft 450 kts 308°
2026-04-24 07:11 18.28429 48.49991 35986 ft 450 kts 307°
2026-04-24 07:12 18.32089 48.44680 35990 ft 449 kts 308°
2026-04-24 07:12 18.35754 48.39371 35991 ft 449 kts 307°
2026-04-24 07:13 18.39423 48.34056 35988 ft 449 kts 307°
2026-04-24 07:13 18.43088 48.28750 35990 ft 450 kts 307°
2026-04-24 07:14 18.46754 48.23439 35993 ft 449 kts 307°
2026-04-24 07:14 18.50411 48.18125 35993 ft 449 kts 307°
2026-04-24 07:15 18.54050 48.12795 35994 ft 449 kts 307°
2026-04-24 07:15 18.57699 48.07466 35993 ft 449 kts 307°
2026-04-24 07:16 18.61346 48.02140 35994 ft 449 kts 307°
2026-04-24 07:16 18.64997 47.96809 35993 ft 449 kts 307°
2026-04-24 07:17 18.68646 47.91483 35994 ft 449 kts 307°
2026-04-24 07:17 18.72296 47.86159 35996 ft 449 kts 307°
2026-04-24 07:18 18.75947 47.80835 35993 ft 449 kts 307°
2026-04-24 07:18 18.79600 47.75510 35998 ft 450 kts 307°
2026-04-24 07:19 18.83255 47.70185 35992 ft 449 kts 307°
2026-04-24 07:19 18.86911 47.64860 35995 ft 449 kts 307°
2026-04-24 07:20 18.90564 47.59540 35995 ft 449 kts 307°
2026-04-24 07:20 18.94217 47.54209 36000 ft 449 kts 307°
2026-04-24 07:21 18.97842 47.48865 36004 ft 449 kts 307°
2026-04-24 07:21 19.01458 47.43513 36005 ft 448 kts 307°
2026-04-24 07:22 19.05070 47.38159 36006 ft 449 kts 307°
2026-04-24 07:22 19.08679 47.32807 36004 ft 448 kts 307°
2026-04-24 07:23 19.12306 47.27457 36003 ft 448 kts 307°
2026-04-24 07:23 19.15930 47.22114 36002 ft 448 kts 307°
2026-04-24 07:24 19.19561 47.16764 36000 ft 448 kts 307°
2026-04-24 07:24 19.23189 47.11421 35999 ft 448 kts 307°
2026-04-24 07:25 19.26818 47.06078 35998 ft 448 kts 307°
2026-04-24 07:25 19.30448 47.00736 35994 ft 448 kts 307°
2026-04-24 07:26 19.34080 46.95392 35997 ft 448 kts 307°
2026-04-24 07:26 19.37720 46.90057 35993 ft 448 kts 307°
2026-04-24 07:27 19.41354 46.84726 35988 ft 442 kts 305°
2026-04-24 07:27 19.44845 46.79537 35987 ft 429 kts 305°
2026-04-24 07:28 19.48296 46.74376 35988 ft 431 kts 305°
2026-04-24 07:28 19.51746 46.69204 35988 ft 431 kts 305°
2026-04-24 07:29 19.55194 46.64031 35983 ft 431 kts 305°
2026-04-24 07:29 19.58643 46.58855 35974 ft 431 kts 305°
2026-04-24 07:30 19.62102 46.53690 35974 ft 431 kts 305°
2026-04-24 07:30 19.65568 46.48523 35978 ft 431 kts 305°
2026-04-24 07:31 19.69033 46.43361 35978 ft 431 kts 305°
2026-04-24 07:31 19.72499 46.38201 35962 ft 430 kts 305°
2026-04-24 07:32 19.75966 46.33040 35959 ft 430 kts 305°
2026-04-24 07:32 19.79437 46.27876 35958 ft 430 kts 305°
2026-04-24 07:33 19.82922 46.22729 35961 ft 430 kts 306°
2026-04-24 07:33 19.86396 46.17570 35962 ft 430 kts 305°
2026-04-24 07:34 19.89846 46.12401 35950 ft 430 kts 305°
2026-04-24 07:34 19.93286 46.07212 35946 ft 430 kts 305°
2026-04-24 07:35 19.96721 46.02029 35950 ft 430 kts 305°
2026-04-24 07:35 20.00160 45.96842 35951 ft 430 kts 305°
2026-04-24 07:36 20.03596 45.91662 35948 ft 430 kts 305°
2026-04-24 07:36 20.07038 45.86474 35941 ft 430 kts 305°
2026-04-24 07:37 20.10476 45.81295 35941 ft 430 kts 305°
2026-04-24 07:37 20.13919 45.76109 35942 ft 430 kts 305°
2026-04-24 07:38 20.17358 45.70927 35942 ft 430 kts 305°
2026-04-24 07:38 20.20799 45.65743 35939 ft 430 kts 305°
2026-04-24 07:39 20.24241 45.60551 35936 ft 430 kts 304°
2026-04-24 07:39 20.27633 45.55329 35936 ft 430 kts 304°
2026-04-24 07:40 20.31048 45.50122 35936 ft 430 kts 305°
2026-04-24 07:40 20.34473 45.44938 35936 ft 430 kts 305°
2026-04-24 07:41 20.37463 45.40048 35937 ft 430 kts 298°
2026-04-24 07:41 20.39953 45.34268 35935 ft 430 kts 292°
2026-04-24 07:42 20.42085 45.28324 35934 ft 431 kts 292°
2026-04-24 07:42 20.44222 45.22380 35934 ft 431 kts 292°
2026-04-24 07:43 20.46470 45.16478 35935 ft 431 kts 294°
2026-04-24 07:43 20.48780 45.10603 35933 ft 430 kts 294°
2026-04-24 07:44 20.51108 45.04739 35934 ft 430 kts 294°
2026-04-24 07:44 20.53437 44.98888 35934 ft 430 kts 294°
2026-04-24 07:45 20.55751 44.93006 35935 ft 430 kts 294°
2026-04-24 07:45 20.58063 44.87133 35937 ft 431 kts 294°
2026-04-24 07:46 20.60379 44.81255 35937 ft 430 kts 294°
2026-04-24 07:46 20.62694 44.75384 35939 ft 431 kts 294°
2026-04-24 07:47 20.65009 44.69500 35943 ft 431 kts 293°
2026-04-24 07:47 20.67284 44.63594 35942 ft 431 kts 293°
2026-04-24 07:48 20.69580 44.57707 35942 ft 431 kts 293°
2026-04-24 07:48 20.71851 44.51801 35943 ft 431 kts 293°
2026-04-24 07:49 20.74129 44.45900 35949 ft 431 kts 293°
2026-04-24 07:49 20.76412 44.39993 35954 ft 431 kts 293°
2026-04-24 07:50 20.78697 44.34083 35954 ft 431 kts 293°
2026-04-24 07:50 20.80984 44.28176 35958 ft 432 kts 293°
2026-04-24 07:51 20.83275 44.22260 35964 ft 432 kts 293°
2026-04-24 07:51 20.85569 44.16345 35962 ft 432 kts 293°
2026-04-24 07:52 20.87862 44.10435 35962 ft 432 kts 293°
2026-04-24 07:52 20.90160 44.04520 35966 ft 432 kts 294°
2026-04-24 07:53 20.92461 43.98601 35972 ft 432 kts 294°
2026-04-24 07:53 20.94752 43.92677 35977 ft 432 kts 293°
2026-04-24 07:54 20.97025 43.86739 35978 ft 432 kts 293°
2026-04-24 07:54 20.99277 43.80786 35983 ft 433 kts 293°
2026-04-24 07:55 21.01527 43.74830 35986 ft 433 kts 293°
2026-04-24 07:55 21.03793 43.68879 35986 ft 435 kts 294°
2026-04-24 07:56 21.06087 43.62890 35984 ft 436 kts 294°
2026-04-24 07:56 21.08387 43.56905 35989 ft 436 kts 294°
2026-04-24 07:57 21.10690 43.50917 35999 ft 436 kts 294°
2026-04-24 07:57 21.12995 43.44926 36000 ft 436 kts 294°
2026-04-24 07:58 21.15288 43.38926 36000 ft 436 kts 294°
2026-04-24 07:58 21.17583 43.32927 36007 ft 436 kts 294°
2026-04-24 07:59 21.19880 43.26927 36008 ft 436 kts 294°
2026-04-24 07:59 21.22172 43.20925 36007 ft 436 kts 294°
2026-04-24 08:00 21.24416 43.14895 36007 ft 436 kts 293°
2026-04-24 08:00 21.26692 43.08882 36014 ft 436 kts 294°
2026-04-24 08:01 21.28944 43.02854 36034 ft 436 kts 293°
2026-04-24 08:01 21.31202 42.96829 36032 ft 436 kts 293°
2026-04-24 08:02 21.33459 42.90806 36035 ft 436 kts 293°
2026-04-24 08:02 21.35719 42.84783 36063 ft 436 kts 294°
2026-04-24 08:03 21.37979 42.78761 36068 ft 437 kts 294°
2026-04-24 08:03 21.40243 42.72739 36064 ft 436 kts 294°
2026-04-24 08:04 21.42509 42.66714 36063 ft 436 kts 294°
2026-04-24 08:04 21.44780 42.60694 36079 ft 436 kts 294°
2026-04-24 08:05 21.46966 42.54677 36090 ft 429 kts 292°
2026-04-24 08:05 21.48757 42.48607 36090 ft 428 kts 289°
2026-04-24 08:06 21.50303 42.42438 36091 ft 429 kts 288°
2026-04-24 08:06 21.51817 42.36257 36100 ft 429 kts 288°
2026-04-24 08:07 21.53359 42.30098 36105 ft 429 kts 288°
2026-04-24 08:07 21.54966 42.23938 36096 ft 428 kts 289°
2026-04-24 08:08 21.56554 42.17787 36099 ft 429 kts 288°
2026-04-24 08:09 21.58943 42.08563 36109 ft 428 kts 288°
2026-04-24 08:09 21.60537 42.02416 36109 ft 428 kts 289°
2026-04-24 08:10 21.62134 41.96264 36109 ft 425 kts 288°
2026-04-24 08:10 21.63691 41.90177 36116 ft 424 kts 288°
2026-04-24 08:11 21.65282 41.84099 36117 ft 423 kts 289°
2026-04-24 08:11 21.66911 41.78035 36119 ft 424 kts 289°
2026-04-24 08:12 21.68555 41.71967 36118 ft 423 kts 289°
2026-04-24 08:12 21.70199 41.65911 36112 ft 423 kts 289°
2026-04-24 08:13 21.71820 41.59852 36115 ft 423 kts 289°
2026-04-24 08:13 21.73444 41.53789 36118 ft 423 kts 289°
2026-04-24 08:14 21.75069 41.47730 36117 ft 423 kts 289°
2026-04-24 08:14 21.76695 41.41668 36110 ft 423 kts 289°
2026-04-24 08:15 21.78323 41.35610 36110 ft 422 kts 289°
2026-04-24 08:15 21.79955 41.29556 36110 ft 423 kts 289°
2026-04-24 08:16 21.81589 41.23489 36104 ft 423 kts 289°
2026-04-24 08:16 21.83215 41.17468 36078 ft 409 kts 289°
2026-04-24 08:16 21.83992 41.14566 35517 ft 402 kts 288°
2026-04-24 08:17 21.84754 41.11704 34969 ft 396 kts 288°
2026-04-24 08:17 21.85490 41.08885 34436 ft 389 kts 287°
2026-04-24 08:17 21.86213 41.06109 33916 ft 383 kts 288°
2026-04-24 08:17 21.86940 41.03361 33414 ft 384 kts 288°
2026-04-24 08:18 21.87674 41.00610 32917 ft 383 kts 288°
2026-04-24 08:18 21.88403 40.97870 32417 ft 380 kts 288°
2026-04-24 08:18 21.89112 40.95158 31919 ft 377 kts 287°
2026-04-24 08:18 21.89820 40.92445 31420 ft 380 kts 287°
2026-04-24 08:19 21.90535 40.89721 30921 ft 377 kts 287°
2026-04-24 08:19 21.91244 40.87031 30421 ft 373 kts 287°
2026-04-24 08:19 21.91947 40.84366 29921 ft 370 kts 287°
2026-04-24 08:19 21.92646 40.81721 29427 ft 366 kts 287°
2026-04-24 08:20 21.93336 40.79106 28949 ft 363 kts 287°
2026-04-24 08:20 21.94022 40.76503 28474 ft 360 kts 287°
2026-04-24 08:20 21.94701 40.73920 27999 ft 357 kts 287°
2026-04-24 08:20 21.95372 40.71361 27524 ft 355 kts 287°
2026-04-24 08:21 21.96038 40.68822 27050 ft 352 kts 287°
2026-04-24 08:21 21.96697 40.66297 26575 ft 353 kts 286°
2026-04-24 08:21 21.97354 40.63746 26102 ft 358 kts 286°
2026-04-24 08:21 21.98015 40.61172 25631 ft 356 kts 286°
2026-04-24 08:22 21.98669 40.58619 25154 ft 352 kts 286°
2026-04-24 08:22 21.99321 40.56096 24679 ft 349 kts 286°
2026-04-24 08:22 21.99982 40.53602 24220 ft 346 kts 287°
2026-04-24 08:22 22.00642 40.51124 23770 ft 344 kts 286°
2026-04-24 08:23 22.01292 40.48654 23331 ft 343 kts 286°
2026-04-24 08:23 22.01941 40.46203 22877 ft 339 kts 286°
2026-04-24 08:23 22.02581 40.43787 22423 ft 336 kts 286°
2026-04-24 08:23 22.03220 40.41371 21972 ft 334 kts 286°
2026-04-24 08:24 22.03855 40.38972 21525 ft 338 kts 286°
2026-04-24 08:24 22.04504 40.36516 21093 ft 342 kts 286°
2026-04-24 08:24 22.05150 40.34057 20637 ft 344 kts 286°
2026-04-24 08:24 22.05809 40.31548 20193 ft 359 kts 286°
2026-04-24 08:25 22.06502 40.28938 19734 ft 364 kts 286°
2026-04-24 08:25 22.07189 40.26321 19267 ft 363 kts 286°
2026-04-24 08:25 22.07897 40.23613 19106 ft 390 kts 286°
2026-04-24 08:25 22.08654 40.20716 19042 ft 414 kts 286°
2026-04-24 08:26 22.09441 40.17703 19024 ft 419 kts 286°
2026-04-24 08:26 22.10225 40.14686 19017 ft 419 kts 286°
2026-04-24 08:26 22.11000 40.11670 19015 ft 419 kts 286°
2026-04-24 08:26 22.11781 40.08650 19016 ft 419 kts 286°
2026-04-24 08:27 22.12563 40.05627 19004 ft 424 kts 285°
2026-04-24 08:27 22.13354 40.02527 18989 ft 435 kts 284°
2026-04-24 08:27 22.14152 39.99370 18982 ft 437 kts 284°
2026-04-24 08:27 22.14965 39.96219 18979 ft 437 kts 284°
2026-04-24 08:28 22.15762 39.93068 18972 ft 437 kts 283°
2026-04-24 08:28 22.16310 39.89859 18965 ft 436 kts 275°
2026-04-24 08:28 22.16355 39.86606 18962 ft 435 kts 265°
2026-04-24 08:28 22.15902 39.83455 18775 ft 417 kts 256°
2026-04-24 08:29 22.14997 39.80555 18225 ft 402 kts 247°
2026-04-24 08:29 22.13661 39.77967 17703 ft 392 kts 240°
2026-04-24 08:29 22.12165 39.75571 17180 ft 382 kts 238°
2026-04-24 08:29 22.10623 39.73261 16679 ft 380 kts 237°
2026-04-24 08:30 22.09046 39.70998 16181 ft 378 kts 236°
2026-04-24 08:30 22.07470 39.68752 15682 ft 375 kts 236°
2026-04-24 08:30 22.05912 39.66537 15190 ft 368 kts 236°
2026-04-24 08:30 22.04381 39.64344 15031 ft 367 kts 237°
2026-04-24 08:31 22.02853 39.62139 14997 ft 368 kts 237°
2026-04-24 08:31 22.01333 39.59938 15007 ft 369 kts 237°
2026-04-24 08:31 21.99802 39.57717 15000 ft 376 kts 237°
2026-04-24 08:31 21.98199 39.55376 15016 ft 399 kts 237°
2026-04-24 08:32 21.96553 39.52963 15007 ft 402 kts 237°
2026-04-24 08:32 21.94825 39.50596 14998 ft 405 kts 231°
2026-04-24 08:32 21.92725 39.48553 15000 ft 410 kts 220°
2026-04-24 08:32 21.90303 39.46946 15000 ft 414 kts 210°
2026-04-24 08:33 21.87631 39.45764 15007 ft 418 kts 203°
2026-04-24 08:33 21.84874 39.44859 14994 ft 406 kts 199°
2026-04-24 08:33 21.82187 39.44144 14484 ft 393 kts 195°
2026-04-24 08:33 21.79562 39.43543 13905 ft 381 kts 193°
2026-04-24 08:34 21.76999 39.42991 13325 ft 372 kts 193°
2026-04-24 08:34 21.74480 39.42486 12744 ft 364 kts 191°
2026-04-24 08:34 21.72034 39.42152 12176 ft 358 kts 188°
2026-04-24 08:34 21.69549 39.41927 11593 ft 352 kts 186°
2026-04-24 08:35 21.67131 39.41759 11017 ft 347 kts 185°
2026-04-24 08:35 21.64730 39.41612 10439 ft 343 kts 185°
2026-04-24 08:35 21.62358 39.41472 9876 ft 339 kts 184°
2026-04-24 08:35 21.60124 39.41318 9258 ft 308 kts 184°
2026-04-24 08:36 21.58090 39.41107 8682 ft 285 kts 190°
2026-04-24 08:36 21.56165 39.40620 8186 ft 282 kts 197°
2026-04-24 08:36 21.54343 39.39991 7672 ft 272 kts 199°
2026-04-24 08:36 21.52589 39.39324 7162 ft 265 kts 201°
2026-04-24 08:37 21.50876 39.38659 6651 ft 260 kts 201°
2026-04-24 08:37 21.49170 39.38003 6159 ft 265 kts 201°
2026-04-24 08:37 21.47423 39.37282 5661 ft 272 kts 210°
2026-04-24 08:37 21.46034 39.35993 5154 ft 261 kts 238°
2026-04-24 08:38 21.45412 39.34235 4676 ft 250 kts 267°
2026-04-24 08:38 21.45593 39.32429 4191 ft 241 kts 288°
2026-04-24 08:38 21.46133 39.30778 3698 ft 225 kts 298°
2026-04-24 08:38 21.46835 39.29412 3194 ft 196 kts 308°
2026-04-24 08:39 21.47619 39.28303 2704 ft 183 kts 313°
2026-04-24 08:39 21.48445 39.27274 2327 ft 179 kts 313°
2026-04-24 08:39 21.49231 39.26327 2053 ft 163 kts 313°
2026-04-24 08:39 21.49995 39.25424 2101 ft 164 kts 313°
2026-04-24 08:40 21.50760 39.24521 2085 ft 164 kts 315°
2026-04-24 08:40 21.51731 39.23889 2110 ft 165 kts 335°
2026-04-24 08:40 21.52812 39.23471 2110 ft 165 kts 340°
2026-04-24 08:40 21.53837 39.23109 2090 ft 142 kts 340°
2026-04-24 08:41 21.54730 39.22781 2069 ft 134 kts 339°
2026-04-24 08:41 21.55600 39.22442 2114 ft 135 kts 338°
2026-04-24 08:41 21.56482 39.22084 2109 ft 136 kts 337°
2026-04-24 08:41 21.57372 39.21716 1970 ft 139 kts 337°
2026-04-24 08:42 21.58261 39.21350 1692 ft 136 kts 338°
2026-04-24 08:42 21.59137 39.20996 1485 ft 134 kts 338°
2026-04-24 08:42 21.60009 39.20649 1363 ft 134 kts 338°
2026-04-24 08:42 21.60883 39.20304 1263 ft 135 kts 338°
2026-04-24 08:43 21.61762 39.19957 1116 ft 135 kts 338°
2026-04-24 08:43 21.62644 39.19610 930 ft 135 kts 338°
2026-04-24 08:43 21.63522 39.19265 734 ft 134 kts 338°
2026-04-24 08:43 21.64395 39.18924 543 ft 134 kts 338°
2026-04-24 08:44 21.65268 39.18583 358 ft 133 kts 338°
2026-04-24 08:44 21.66137 39.18237 199 ft 133 kts 338°
2026-04-24 08:44 21.66999 39.17890 61 ft 130 kts 338°
2026-04-24 08:44 21.67610 39.17644 60 ft 60 kts 340°
2026-04-24 08:45 21.67954 39.17510 60 ft 46 kts 339°
2026-04-24 08:45 21.68218 39.17404 60 ft 35 kts 340°
2026-04-24 08:45 21.68382 39.17301 60 ft 24 kts 307°
2026-04-24 08:45 21.68471 39.17166 60 ft 21 kts 305°
2026-04-24 08:46 21.68559 39.17044 60 ft 20 kts 323°
2026-04-24 08:46 21.68681 39.16988 60 ft 19 kts 340°
2026-04-24 08:46 21.68790 39.16946 60 ft 18 kts 340°
2026-04-24 08:46 21.68903 39.16900 60 ft 17 kts 339°
2026-04-24 08:47 21.69002 39.16859 60 ft 16 kts 339°
2026-04-24 08:47 21.69101 39.16820 60 ft 16 kts 340°
2026-04-24 08:47 21.69199 39.16781 60 ft 15 kts 340°
2026-04-24 08:47 21.69291 39.16745 60 ft 14 kts 340°
2026-04-24 08:48 21.69375 39.16707 60 ft 13 kts 323°
2026-04-24 08:48 21.69385 39.16625 60 ft 15 kts 248°
2026-04-24 08:48 21.69330 39.16486 60 ft 22 kts 246°
2026-04-24 08:48 21.69272 39.16337 60 ft 21 kts 247°
2026-04-24 08:49 21.69212 39.16186 60 ft 25 kts 246°
2026-04-24 08:49 21.69145 39.16016 60 ft 24 kts 247°
2026-04-24 08:49 21.69081 39.15852 60 ft 24 kts 248°
2026-04-24 08:49 21.69021 39.15692 60 ft 22 kts 245°
2026-04-24 08:50 21.68962 39.15541 60 ft 22 kts 248°
2026-04-24 08:50 21.68905 39.15394 60 ft 21 kts 245°
2026-04-24 08:50 21.68852 39.15268 60 ft 21 kts 247°
2026-04-24 08:50 21.68800 39.15152 60 ft 16 kts 217°
2026-04-24 08:51 21.68695 39.15168 60 ft 17 kts 161°
2026-04-24 08:51 21.68581 39.15213 60 ft 19 kts 160°
2026-04-24 08:51 21.68453 39.15263 60 ft 21 kts 160°
2026-04-24 08:51 21.68367 39.15214 60 ft 14 kts 244°
2026-04-24 08:52 21.68334 39.15125 60 ft 14 kts 249°
2026-04-24 08:52 21.68292 39.15033 60 ft 13 kts 203°
2026-04-24 08:52 21.68222 39.15051 60 ft 1 kts 157°